This demonstration page uses our WeatherBlox Daily Observations layout. Learn more.

Hourly Observations for June 18, 2020

Temp ( °F °C ) Dew Point ( °F °C ) Humidity (%) Winds ( mph kmh ) Pressure ( in mb ) Visibility ( mi km ) Precip ( " mm )
12:15 am 00:15 Clear 80 26.7 55 12.5 41 41 SSE 23 37 29.66 1005 10 16.0934 0 0
12:35 am 00:35 Clear 79 26.1 55 13 44 44 SSE 16 26 29.68 1005 10 16.0934 0 0
12:55 am 00:55 Clear 78 25.6 56 13.5 47 47 SSE 17 28 29.68 1005 10 16.0934 0 0
1:15 am 01:15 Clear 78 25.5 56 13.6 48 48 SSE 18 30 29.68 1005 10 16.0934 0 0
1:35 am 01:35 Clear 77 25.1 57 13.7 49 49 SSE 16 26 29.7 1006 10 16.0934 0 0
1:55 am 01:55 Clear 76 24.3 57 14 53 53 SSE 14 22 29.69 1006 10 16.0934 0 0
2:15 am 02:15 Clear 75 23.7 58 14.5 56 56 SSE 15 24 29.7 1006 10 16.0934 0 0
2:35 am 02:35 Clear 75 23.7 58 14.5 56 56 SSE 17 28 29.7 1006 10 16.0934 0 0
2:55 am 02:55 Clear 75 24 58 14.4 55 55 SSE 15 24 29.7 1006 10 16.0934 0 0
3:15 am 03:15 Clear 75 23.9 58 14.2 55 55 SSE 16 26 29.7 1006 10 16.0934 0 0
3:35 am 03:35 Clear 75 23.7 58 14.3 56 56 SSE 16 26 29.7 1006 10 16.0934 0 0
3:55 am 03:55 Clear 74 23.5 58 14.5 57 57 SSE 17 28 29.69 1005 10 16.0934 0 0
4:15 am 04:15 Clear 73 23 58 14.6 59 59 SSE 17 28 29.68 1005 10 16.0934 0 0
4:35 am 04:35 Clear 73 23 58 14.5 59 59 SSE 17 28 29.67 1005 10 16.0934 0 0
4:55 am 04:55 Clear 73 22.6 58 14.3 60 60 SSE 16 26 29.69 1005 10 16.0934 0 0
5:15 am 05:15 Clear 72 22.3 57 14.1 60 60 S 9 15 29.7 1006 10 16.0934 0 0
5:35 am 05:35 Mostly Cloudy 71 21.9 58 14.2 62 62 S 8 13 29.7 1006 7 11.26538 0 0
5:55 am 05:55 Mostly Cloudy 71 21.8 57 14.1 62 62 S 8 13 29.71 1006 10 16.0934 0 0
6:15 am 06:15 Partly Cloudy 70 21.2 57 14.1 64 64 SSE 7 11 29.73 1007 10 16.0934 0 0
6:35 am 06:35 Sunny 69 20.7 57 14.1 66 66 SSE 3 6 29.74 1007 10 16.0934 0 0
6:55 am 06:55 Sunny 68 20.2 58 14.2 69 69 S 5 7 29.75 1007 10 16.0934 0 0
7:15 am 07:15 Sunny 69 20.7 58 14.6 68 68 SE 5 7 29.74 1007 10 16.0934 0 0
7:35 am 07:35 Sunny 70 21.2 59 15.1 68 68 Calm 29.76 1008 10 16.0934 0 0
7:55 am 07:55 Sunny 72 22.1 60 15.4 66 66 N 9 15 29.77 1008 10 16.0934 0 0
8:15 am 08:15 Sunny 73 22.5 59 15 63 63 NNE 6 9 29.78 1008 10 16.0934 0 0
8:35 am 08:35 Sunny 73 23 59 15 61 61 N 5 7 29.78 1009 10 16.0934 0 0
8:55 am 08:55 Sunny 74 23.3 59 14.8 59 59 Calm 29.78 1008 10 16.0934 0 0
9:15 am 09:15 Sunny 75 23.8 58 14.7 57 57 Calm 29.78 1008 10 16.0934 0 0
9:35 am 09:35 Partly Cloudy 75 24.1 58 14.3 54 54 SE 3 6 29.78 1009 7 11.26538 0 0
9:55 am 09:55 Mostly Cloudy with Haze 75 24 58 14.6 56 56 Calm 29.79 1009 3 4.82802 0 0
10:15 am 10:15 Cloudy with Haze 76 24.2 58 14.7 55 55 Calm 29.79 1009 4 6.43736 0 0
10:35 am 10:35 Cloudy 73 22.8 62 16.7 69 69 N 18 30 29.81 1010 10 16.0934 0 0
10:55 am 10:55 Mostly Cloudy 73 22.6 62 16.7 69 69 N 23 37 29.83 1010 10 16.0934 0 0
11:15 am 11:15 Partly Cloudy 73 22.8 63 17 70 70 NNE 22 35 29.82 1010 10 16.0934 0 0
11:35 am 11:35 Mostly Cloudy 73 23 63 17 69 69 N 20 31 29.83 1010 10 16.0934 0 0
11:55 am 11:55 Cloudy 73 22.8 62 16.5 68 68 N 18 30 29.84 1011 10 16.0934 0 0
12:15 pm 12:15 Mostly Cloudy 73 22.8 62 16.6 68 68 N 18 30 29.84 1011 10 16.0934 0 0
12:35 pm 12:35 Mostly Cloudy 75 23.9 62 16.8 65 65 NNE 17 28 29.84 1010 10 16.0934 0 0
12:55 pm 12:55 Mostly Cloudy 75 24 62 16.6 63 63 N 20 31 29.84 1011 10 16.0934 0 0
1:15 pm 13:15 Mostly Cloudy 73 22.9 61 16.2 66 66 N 17 28 29.86 1011 10 16.0934 0 0
1:35 pm 13:35 Cloudy 73 22.7 62 16.4 68 68 N 17 28 29.87 1011 10 16.0934 0 0
1:55 pm 13:55 Cloudy 73 22.9 62 16.7 68 68 N 16 26 29.86 1011 10 16.0934 0 0
2:15 pm 14:15 Cloudy 75 23.7 62 16.4 64 64 NNE 21 33 29.86 1011 10 16.0934 0 0
2:35 pm 14:35 Mostly Cloudy 75 24.1 60 15.3 58 58 N 18 30 29.85 1011 10 16.0934 0 0
2:55 pm 14:55 Mostly Cloudy 76 24.2 59 15.2 57 57 N 18 30 29.85 1011 10 16.0934 0 0
3:15 pm 15:15 Partly Cloudy 77 24.8 60 15.6 57 57 N 20 31 29.85 1011 10 16.0934 0 0
3:35 pm 15:35 Mostly Cloudy 76 24.3 59 15.2 57 57 N 21 33 29.85 1011 10 16.0934 0 0
3:55 pm 15:55 Mostly Cloudy 76 24.5 58 14.4 53 53 N 18 30 29.85 1011 10 16.0934 0 0
4:15 pm 16:15 Partly Cloudy 76 24.5 58 14.4 53 53 NNE 20 31 29.85 1011 10 16.0934 0 0
4:35 pm 16:35 Sunny 76 24.3 57 14.1 53 53 N 20 31 29.85 1011 10 16.0934 0 0
4:55 pm 16:55 Sunny 76 24.3 57 13.7 52 52 NNE 18 30 29.85 1011 10 16.0934 0 0
5:15 pm 17:15 Sunny 76 24.5 57 13.7 51 51 N 17 28 29.85 1011 10 16.0934 0 0
5:35 pm 17:35 Sunny 75 23.9 56 13.5 52 52 N 17 28 29.86 1011 10 16.0934 0 0
5:55 pm 17:55 Sunny 74 23.4 55 12.9 52 52 N 17 28 29.86 1011 10 16.0934 0 0
6:15 pm 18:15 Sunny 74 23.1 53 11.9 49 49 N 17 28 29.86 1011 10 16.0934 0 0
6:35 pm 18:35 Partly Cloudy 74 23.4 53 11.5 47 47 N 20 31 29.86 1011 10 16.0934 0 0
6:55 pm 18:55 Partly Cloudy 74 23.4 51 10.6 45 45 N 18 30 29.86 1011 10 16.0934 0 0
7:15 pm 19:15 Partly Cloudy 74 23.1 52 11 47 47 NNE 20 31 29.86 1011 10 16.0934 0 0
7:35 pm 19:35 Partly Cloudy 73 23 54 12.1 50 50 NNE 15 24 29.86 1011 10 16.0934 0 0
7:55 pm 19:55 Partly Cloudy 73 22.5 55 13 55 55 NNE 14 22 29.87 1011 10 16.0934 0 0
8:15 pm 20:15 Partly Cloudy 72 22.2 56 13.1 56 56 NNE 16 26 29.88 1012 10 16.0934 0 0
8:35 pm 20:35 Sunny 72 22 53 11.5 51 51 N 14 22 29.88 1012 10 16.0934 0 0
8:55 pm 20:55 Sunny 70 21.3 53 11.4 53 53 NNE 14 22 29.9 1012 10 16.0934 0 0
9:15 pm 21:15 Clear 69 20.7 53 11.7 56 56 NNE 14 22 29.9 1013 10 16.0934 0 0
9:35 pm 21:35 Clear 68 20 54 12 60 60 NNE 15 24 29.92 1013 10 16.0934 0 0
9:55 pm 21:55 Clear 68 20 53 11.8 59 59 NE 14 22 29.94 1014 10 16.0934 0 0
10:15 pm 22:15 Partly Cloudy 67 19.7 54 12 61 61 NE 14 22 29.97 1015 10 16.0934 0 0
10:35 pm 22:35 Cloudy 67 19.6 54 12.2 62 62 NE 14 22 29.98 1015 10 16.0934 0 0
10:55 pm 22:55 Mostly Cloudy 67 19.5 54 12.1 62 62 NE 14 22 29.98 1015 10 16.0934 0 0
11:15 pm 23:15 Clear 66 18.9 54 12.1 65 65 NE 10 17 29.98 1015 10 16.0934 0 0
11:35 pm 23:35 Clear 65 18.1 54 12.1 68 68 NE 7 11 29.99 1016 10 16.0934 0 0
11:55 pm 23:55 Clear with Thunderstorms 64 17.5 54 12.1 71 71 NNE 8 13 29.99 1016 10 16.0934 0 0

Powered by AerisWeather